Location: Unspecified
(40.7945°N, 0.0000°E)
Time: 10:32:18
(UTC+00:00)

TIGRISAT - Pass Details

Date: 26 August 2019
Orbit: 605 x 690 km, 97.7° (Epoch: 18 September)

Event Time Altitude Azimuth Distance (km) Brightness Sun altitude
Rises 20:59:37 0° 11° (N) 3,019 ? -23.9°
Reaches altitude 10° 21:01:53 10° 10° (N) 2,089 ? -24.2°
Maximum altitude 21:06:27 82° 283° (WNW) 661 ? -24.9°
Enters shadow 21:06:41 78° 234° (SW) 668 ? -24.9°
